TimeAKST,TemperatureF,Dew PointF,Humidity,Sea Level PressureIn,VisibilityMPH,Wind Direction,Wind SpeedMPH,Gust SpeedMPH,PrecipitationIn,Events,Conditions,WindDirDegrees,DateUTC
12:23 AM,41.0,34.0,76,29.79,10.0,ESE,11.5,-,N/A,,Overcast,120,2013-12-13 09:23:00
12:53 AM,41.0,34.0,76,29.81,10.0,ESE,11.5,-,N/A,,Overcast,120,2013-12-13 09:53:00
1:53 AM,41.0,35.1,79,29.81,9.0,ESE,12.7,-,0.01,Rain,Light Rain,120,2013-12-13 10:53:00
2:53 AM,41.0,36.0,82,29.79,8.0,ESE,10.4,-,0.03,Rain,Light Rain,110,2013-12-13 11:53:00
3:53 AM,41.0,37.0,86,29.78,10.0,ESE,9.2,-,0.03,Rain,Light Rain,120,2013-12-13 12:53:00
4:53 AM,41.0,37.9,89,29.77,9.0,ESE,10.4,-,0.02,Rain,Light Rain,120,2013-12-13 13:53:00
5:53 AM,41.0,37.0,86,29.73,8.0,ESE,13.8,-,0.03,Rain,Light Rain,120,2013-12-13 14:53:00
6:53 AM,42.1,37.9,85,29.69,7.0,ESE,13.8,-,0.03,Rain,Light Rain,120,2013-12-13 15:53:00
7:53 AM,42.1,37.9,85,29.65,9.0,ESE,16.1,-,0.06,Rain,Light Rain,110,2013-12-13 16:53:00
8:04 AM,43.0,37.9,82,29.64,10.0,ESE,16.1,-,0.00,Rain,Light Rain,120,2013-12-13 17:04:00
8:53 AM,42.1,37.9,85,29.62,8.0,ESE,16.1,-,0.03,Rain,Light Rain,110,2013-12-13 17:53:00
9:53 AM,43.0,37.0,80,29.57,6.0,ESE,17.3,25.3,0.04,Rain,Light Rain,110,2013-12-13 18:53:00
10:53 AM,42.1,37.0,82,29.52,8.0,ESE,19.6,27.6,0.04,Rain,Light Rain,120,2013-12-13 19:53:00
11:53 AM,42.1,37.9,85,29.46,3.0,ESE,24.2,33.4,0.07,Rain,Rain,110,2013-12-13 20:53:00
12:53 PM,43.0,37.9,82,29.38,3.0,ESE,23.0,34.5,0.05,Rain,Rain,110,2013-12-13 21:53:00
1:53 PM,43.0,39.0,86,29.32,3.0,ESE,26.5,48.3,0.10,Rain,Rain,110,2013-12-13 22:53:00
2:08 PM,43.0,39.0,86,29.32,2.0,East,29.9,40.3,0.04,Rain,Rain,100,2013-12-13 23:08:00
2:37 PM,44.1,39.0,82,29.32,3.0,East,28.8,42.6,0.12,Rain,Rain,100,2013-12-13 23:37:00
2:53 PM,44.1,39.0,82,29.32,3.0,ESE,25.3,36.8,0.18,Rain,Rain,110,2013-12-13 23:53:00
3:01 PM,44.1,39.0,82,29.32,4.0,ESE,21.9,36.8,0.03,Rain,Rain,110,2013-12-14 00:01:00
3:53 PM,44.1,39.0,82,29.31,4.0,ESE,25.3,35.7,0.19,Rain,Rain,110,2013-12-14 00:53:00
4:20 PM,44.1,41.0,89,29.33,2.5,SE,16.1,29.9,0.04,Rain,Rain,130,2013-12-14 01:20:00
4:31 PM,44.1,41.0,89,29.32,1.8,ESE,17.3,31.1,0.06,Rain,Rain,120,2013-12-14 01:31:00
4:53 PM,44.1,42.1,93,29.33,2.5,ESE,16.1,26.5,0.08,Rain,Light Rain,120,2013-12-14 01:53:00
5:53 PM,48.0,46.0,93,29.34,2.5,South,19.6,31.1,0.05,Rain,Light Rain,180,2013-12-14 02:53:00
6:00 PM,48.9,46.0,90,29.33,5.0,South,20.7,35.7,0.00,Rain,Light Rain,170,2013-12-14 03:00:00
6:16 PM,48.0,46.0,93,29.34,2.5,South,26.5,35.7,0.01,Rain,Light Rain,170,2013-12-14 03:16:00
6:26 PM,48.0,46.0,93,29.33,3.0,South,23.0,33.4,0.02,Rain,Light Rain,170,2013-12-14 03:26:00
6:34 PM,48.0,46.0,93,29.33,2.5,South,24.2,36.8,0.02,Rain,Light Rain,180,2013-12-14 03:34:00
6:38 PM,48.0,46.0,93,29.33,3.0,South,26.5,34.5,0.03,Rain,Light Rain,180,2013-12-14 03:38:00
6:53 PM,48.0,46.0,93,29.33,3.0,South,24.2,34.5,0.03,Rain,Light Rain,180,2013-12-14 03:53:00
6:56 PM,48.0,46.0,93,29.33,2.5,South,19.6,34.5,0.00,Rain,Light Rain,180,2013-12-14 03:56:00
7:01 PM,48.0,46.0,93,29.33,3.0,South,20.7,34.5,0.01,Rain,Light Rain,170,2013-12-14 04:01:00
7:53 PM,48.0,46.0,93,29.34,3.0,South,23.0,35.7,0.04,Rain,Light Rain,180,2013-12-14 04:53:00
8:35 PM,46.9,46.0,97,29.36,2.5,South,19.6,32.2,0.03,Rain,Light Rain,180,2013-12-14 05:35:00
8:53 PM,46.9,45.0,93,29.37,2.5,South,24.2,35.7,0.04,Rain,Light Rain,180,2013-12-14 05:53:00
8:58 PM,46.9,45.0,93,29.38,3.0,South,24.2,35.7,0.00,Rain,Light Rain,180,2013-12-14 05:58:00
9:13 PM,46.9,45.0,93,29.38,2.5,South,21.9,34.5,0.02,Rain,Light Rain,180,2013-12-14 06:13:00
9:26 PM,46.9,45.0,93,29.39,3.0,South,24.2,34.5,0.03,Rain,Light Rain,180,2013-12-14 06:26:00
9:53 PM,46.0,45.0,96,29.40,6.0,South,18.4,26.5,0.03,,Overcast,180,2013-12-14 06:53:00
10:35 PM,46.9,44.1,90,29.41,8.0,South,21.9,33.4,0.01,,Overcast,170,2013-12-14 07:35:00
10:53 PM,46.9,44.1,90,29.42,9.0,South,24.2,34.5,0.01,,Overcast,170,2013-12-14 07:53:00
11:53 PM,46.9,45.0,93,29.42,7.0,South,20.7,31.1,0.01,Rain,Light Rain,180,2013-12-14 08:53:00